Private Wetterstation Wechselburg
Wetterdaten: Montag, 14.12.2020
Datum Zeit Temp. +2m Bodentemp. Temp.+5cm Temp. Wind Windchill X Diff Temp. Feuchte +2m Feuchte +5cm Luftdruck Regen Wind Richtung Richtung Sonnenschein Taupunkt Windchill Windben
14.12.2020 00:00 4,2 C 6,7 C 3,2 C 3,9 C 3,4 C 0,0 C 88 % 92 % 1016,3 hPa 0,0 l/m 0,0 km/h (0 Bft) S-SW 202 0 min 2,4 C 3,4 C 0,0 km/h (0 Bft)
14.12.2020 00:05 4,1 C 6,7 C 2,9 C 3,8 C 3,3 C 0,0 C 88 % 92 % 1016,3 hPa 0,0 l/m 0,0 km/h (0 Bft) S-SW 202 0 min 2,3 C 3,3 C 0,0 km/h (0 Bft)
14.12.2020 00:10 3,9 C 6,7 C 2,7 C 3,7 C 3,2 C 0,0 C 88 % 92 % 1015,9 hPa 0,0 l/m 0,0 km/h (0 Bft) S-SW 202 0 min 2,1 C 3,2 C 0,0 km/h (0 Bft)
14.12.2020 00:15 3,7 C 6,7 C 2,5 C 3,5 C 3,0 C 0,0 C 88 % 92 % 1015,9 hPa 0,0 l/m 0,0 km/h (0 Bft) S-SW 202 0 min 1,9 C 3,0 C 0,0 km/h (0 Bft)
14.12.2020 00:20 3,6 C 6,7 C 2,5 C 3,3 C 2,8 C 0,0 C 87 % 92 % 1015,9 hPa 0,0 l/m 0,0 km/h (0 Bft) S-SW 202 0 min 1,6 C 2,8 C 0,0 km/h (0 Bft)
14.12.2020 00:25 3,5 C 6,7 C 2,2 C 3,2 C 2,6 C 0,0 C 87 % 92 % 1015,9 hPa 0,0 l/m 0,0 km/h (0 Bft) S-SW 202 0 min 1,5 C 2,6 C 0,0 km/h (0 Bft)
14.12.2020 00:30 3,3 C 6,7 C 2,0 C 3,0 C 2,5 C 0,0 C 87 % 92 % 1016,7 hPa 0,0 l/m 0,0 km/h (0 Bft) S-SW 202 0 min 1,3 C 2,5 C 0,0 km/h (0 Bft)
14.12.2020 00:35 3,3 C 6,7 C 1,8 C 3,0 C 2,5 C 0,0 C 87 % 92 % 1016,7 hPa 0,0 l/m 0,0 km/h (0 Bft) S 180 0 min 1,3 C 2,5 C 0,0 km/h (0 Bft)
14.12.2020 00:40 3,2 C 6,6 C 1,7 C 3,0 C 2,5 C 0,0 C 87 % 92 % 1016,7 hPa 0,0 l/m 0,0 km/h (0 Bft) S-SW 202 0 min 1,2 C 2,5 C 0,0 km/h (0 Bft)
14.12.2020 00:45 3,1 C 6,6 C 1,5 C 2,8 C 2,3 C 0,0 C 87 % 92 % 1016,7 hPa 0,0 l/m 0,0 km/h (0 Bft) S-SW 202 0 min 1,2 C 2,3 C 0,0 km/h (0 Bft)
14.12.2020 00:50 2,9 C 6,6 C 1,5 C 2,6 C 2,1 C 0,0 C 87 % 92 % 1016,8 hPa 0,0 l/m 0,0 km/h (0 Bft) S-SW 202 0 min 1,0 C 2,1 C 0,0 km/h (0 Bft)
14.12.2020 00:55 2,8 C 6,6 C 1,5 C 2,5 C 1,9 C 0,0 C 88 % 92 % 1016,8 hPa 0,0 l/m 0,0 km/h (0 Bft) S-SW 202 0 min 1,0 C 1,9 C 0,0 km/h (0 Bft)
14.12.2020 01:00 2,8 C 6,6 C 1,4 C 2,4 C 1,7 C 0,0 C 88 % 92 % 1016,8 hPa 0,0 l/m 0,0 km/h (0 Bft) S-SW 202 0 min 1,0 C 1,7 C 0,0 km/h (0 Bft)
14.12.2020 01:05 2,7 C 6,6 C 1,1 C 2,3 C 1,4 C 0,0 C 88 % 92 % 1016,8 hPa 0,0 l/m 0,0 km/h (0 Bft) S-SW 202 0 min 0,9 C 1,4 C 0,0 km/h (0 Bft)
14.12.2020 01:10 2,5 C 6,6 C 1,2 C 2,1 C 1,4 C 0,0 C 88 % 93 % 1016,2 hPa 0,0 l/m 0,0 km/h (0 Bft) S-SW 202 0 min 0,7 C 1,4 C 0,0 km/h (0 Bft)
14.12.2020 01:15 2,4 C 6,6 C 1,0 C 2,2 C 1,7 C 0,0 C 88 % 93 % 1016,2 hPa 0,0 l/m 0,0 km/h (0 Bft) S 180 0 min 0,6 C 1,7 C 0,0 km/h (0 Bft)
14.12.2020 01:20 2,4 C 6,6 C 0,9 C 2,2 C 1,7 C 0,0 C 88 % 93 % 1016,2 hPa 0,0 l/m 0,0 km/h (0 Bft) S-SW 202 0 min 0,6 C 1,7 C 0,0 km/h (0 Bft)
14.12.2020 01:25 2,3 C 6,6 C 0,8 C 2,1 C 1,7 C 0,0 C 88 % 93 % 1016,2 hPa 0,0 l/m 0,0 km/h (0 Bft) S-SW 202 0 min 0,5 C 1,7 C 0,0 km/h (0 Bft)
14.12.2020 01:30 2,1 C 6,6 C 0,7 C 1,9 C 1,6 C 0,0 C 88 % 93 % 1016,0 hPa 0,0 l/m 0,0 km/h (0 Bft) S-SW 202 0 min 0,3 C 1,6 C 0,0 km/h (0 Bft)
14.12.2020 01:35 2,1 C 6,6 C 0,6 C 1,9 C 1,4 C 0,0 C 88 % 93 % 1016,0 hPa 0,0 l/m 0,0 km/h (0 Bft) S-SW 202 0 min 0,3 C 1,4 C 0,0 km/h (0 Bft)
14.12.2020 01:40 1,9 C 6,6 C 0,5 C 1,7 C 1,2 C 0,0 C 88 % 93 % 1016,0 hPa 0,0 l/m 0,0 km/h (0 Bft) S-SW 202 0 min 0,1 C 1,2 C 0,0 km/h (0 Bft)
14.12.2020 01:45 1,9 C 6,5 C 0,5 C 1,6 C 0,9 C 0,0 C 88 % 93 % 1016,0 hPa 0,0 l/m 0,0 km/h (0 Bft) S-SW 202 0 min 0,1 C 0,9 C 0,0 km/h (0 Bft)
14.12.2020 01:50 1,7 C 6,5 C 0,7 C 1,4 C 0,9 C 0,0 C 88 % 93 % 1016,4 hPa 0,0 l/m 0,0 km/h (0 Bft) S-SW 202 0 min -0,1 C 0,9 C 0,0 km/h (0 Bft)
14.12.2020 01:55 1,6 C 6,5 C 0,9 C 1,4 C 1,1 C 0,0 C 88 % 93 % 1016,4 hPa 0,0 l/m 0,0 km/h (0 Bft) S-SW 202 0 min -0,2 C 1,1 C 0,0 km/h (0 Bft)
14.12.2020 02:00 1,6 C 6,5 C 1,0 C 1,5 C 1,3 C 0,0 C 88 % 93 % 1016,4 hPa 0,0 l/m 0,0 km/h (0 Bft) S 180 0 min -0,2 C 1,3 C 0,0 km/h (0 Bft)
14.12.2020 02:05 1,5 C 6,5 C 1,0 C 1,4 C 1,3 C 0,0 C 88 % 93 % 1016,4 hPa 0,0 l/m 0,0 km/h (0 Bft) S-SW 202 0 min -0,3 C 1,3 C 0,0 km/h (0 Bft)
14.12.2020 02:10 1,5 C 6,5 C 0,9 C 1,4 C 1,2 C 0,0 C 88 % 93 % 1017,2 hPa 0,0 l/m 0,0 km/h (0 Bft) S-SW 202 0 min -0,3 C 1,2 C 0,0 km/h (0 Bft)
14.12.2020 02:15 1,3 C 6,5 C 0,9 C 1,3 C 1,3 C 0,0 C 88 % 93 % 1017,2 hPa 0,0 l/m 0,0 km/h (0 Bft) S-SW 202 0 min -0,5 C 1,3 C 0,0 km/h (0 Bft)
14.12.2020 02:20 1,3 C 6,5 C 0,9 C 1,4 C 1,4 C 0,1 C 88 % 93 % 1017,2 hPa 0,0 l/m 0,0 km/h (0 Bft) S 180 0 min -0,5 C 1,4 C 0,0 km/h (0 Bft)
14.12.2020 02:25 1,3 C 6,5 C 1,1 C 1,7 C 1,7 C 0,4 C 88 % 93 % 1017,2 hPa 0,0 l/m 0,0 km/h (0 Bft) S-SW 202 0 min -0,5 C 1,7 C 0,0 km/h (0 Bft)
14.12.2020 02:30 1,3 C 6,5 C 1,2 C 1,8 C 1,8 C 0,5 C 88 % 93 % 1017,1 hPa 0,0 l/m 0,0 km/h (0 Bft) S-SW 202 0 min -0,5 C 1,8 C 0,0 km/h (0 Bft)
14.12.2020 02:35 1,3 C 6,5 C 1,4 C 2,0 C 2,0 C 0,7 C 88 % 93 % 1017,1 hPa 0,0 l/m 0,2 km/h (0 Bft) S-SW 202 0 min -0,5 C 2,0 C 0,0 km/h (0 Bft)
14.12.2020 02:40 1,3 C 6,5 C 1,5 C 2,1 C 2,1 C 0,8 C 88 % 93 % 1017,1 hPa 0,0 l/m 0,2 km/h (0 Bft) S-SW 202 0 min -0,5 C 2,1 C 0,0 km/h (0 Bft)
14.12.2020 02:45 1,3 C 6,5 C 1,5 C 2,0 C 2,0 C 0,7 C 88 % 93 % 1017,1 hPa 0,0 l/m 0,0 km/h (0 Bft) S-SW 202 0 min -0,5 C 2,0 C 0,0 km/h (0 Bft)
14.12.2020 02:50 1,2 C 6,5 C 1,4 C 1,8 C 1,8 C 0,6 C 88 % 93 % 1016,6 hPa 0,0 l/m 0,0 km/h (0 Bft) S-SW 202 0 min -0,6 C 1,8 C 0,0 km/h (0 Bft)
14.12.2020 02:55 1,3 C 6,5 C 1,4 C 1,6 C 1,6 C 0,3 C 88 % 93 % 1016,6 hPa 0,0 l/m 0,0 km/h (0 Bft) S-SW 202 0 min -0,5 C 1,6 C 0,0 km/h (0 Bft)
14.12.2020 03:00 1,2 C 6,5 C 1,2 C 1,4 C 1,4 C 0,2 C 88 % 93 % 1016,6 hPa 0,0 l/m 0,0 km/h (0 Bft) S-SW 202 0 min -0,6 C 1,4 C 0,0 km/h (0 Bft)
14.12.2020 03:05 1,1 C 6,5 C 1,1 C 1,1 C 1,0 C 0,0 C 88 % 93 % 1016,6 hPa 0,0 l/m 0,0 km/h (0 Bft) S-SW 202 0 min -0,7 C 1,0 C 0,0 km/h (0 Bft)
14.12.2020 03:10 1,1 C 6,5 C 0,9 C 1,0 C 0,8 C 0,0 C 88 % 93 % 1016,7 hPa 0,0 l/m 0,0 km/h (0 Bft) S-SW 202 0 min -0,7 C 0,8 C 0,0 km/h (0 Bft)
14.12.2020 03:15 0,9 C 6,4 C 0,7 C 0,7 C 0,4 C 0,0 C 88 % 93 % 1016,7 hPa 0,0 l/m 0,3 km/h (0 Bft) S-SW 202 0 min -0,9 C 0,4 C 2,3 km/h (1 Bft)
14.12.2020 03:20 0,9 C 6,4 C 0,5 C 0,7 C 0,4 C 0,0 C 88 % 93 % 1016,7 hPa 0,0 l/m 0,3 km/h (0 Bft) S-SW 202 0 min -0,9 C 0,4 C 0,0 km/h (0 Bft)
14.12.2020 03:25 0,8 C 6,4 C 0,4 C 0,6 C 0,3 C 0,0 C 88 % 93 % 1016,7 hPa 0,0 l/m 0,2 km/h (0 Bft) S-SW 202 0 min -1,0 C 0,3 C 0,0 km/h (0 Bft)
14.12.2020 03:30 0,8 C 6,4 C 0,3 C 0,6 C 0,2 C 0,0 C 88 % 93 % 1016,2 hPa 0,0 l/m 0,0 km/h (0 Bft) S-SW 202 0 min -1,0 C 0,2 C 0,0 km/h (0 Bft)
14.12.2020 03:35 0,7 C 6,4 C 0,2 C 0,4 C -0,2 C 0,0 C 88 % 93 % 1016,2 hPa 0,0 l/m 0,0 km/h (0 Bft) S-SW 202 0 min -1,1 C -0,2 C 0,0 km/h (0 Bft)
14.12.2020 03:40 0,6 C 6,4 C 0,1 C 0,3 C -0,2 C 0,0 C 88 % 93 % 1016,2 hPa 0,0 l/m 0,0 km/h (0 Bft) S-SW 202 0 min -1,2 C -0,2 C 0,0 km/h (0 Bft)
14.12.2020 03:45 0,5 C 6,4 C -0,1 C 0,2 C -0,4 C 0,0 C 88 % 93 % 1016,2 hPa 0,0 l/m 0,0 km/h (0 Bft) S-SW 202 0 min -1,3 C -0,4 C 0,0 km/h (0 Bft)
14.12.2020 03:50 0,5 C 6,4 C -0,2 C 0,2 C -0,5 C 0,0 C 88 % 93 % 1016,2 hPa 0,0 l/m 0,0 km/h (0 Bft) S-SW 202 0 min -1,3 C -0,5 C 0,0 km/h (0 Bft)
14.12.2020 03:55 0,3 C 6,4 C -0,2 C 0,1 C -0,4 C 0,0 C 88 % 93 % 1016,2 hPa 0,0 l/m 0,2 km/h (0 Bft) S-SW 202 0 min -1,4 C -0,4 C 0,0 km/h (0 Bft)
14.12.2020 04:00 0,3 C 6,4 C -0,3 C 0,1 C -0,3 C 0,0 C 88 % 93 % 1016,2 hPa 0,0 l/m 0,2 km/h (0 Bft) S-SW 202 0 min -1,4 C -0,3 C 0,0 km/h (0 Bft)
14.12.2020 04:05 0,2 C 6,4 C -0,3 C 0,1 C -0,2 C 0,0 C 88 % 93 % 1016,2 hPa 0,0 l/m 0,0 km/h (0 Bft) S-SW 202 0 min -1,5 C -0,2 C 0,0 km/h (0 Bft)
14.12.2020 04:10 0,1 C 6,3 C -0,3 C 0,0 C -0,1 C 0,0 C 88 % 93 % 1016,8 hPa 0,0 l/m 0,0 km/h (0 Bft) S-SW 202 0 min -1,6 C -0,1 C 0,0 km/h (0 Bft)
14.12.2020 04:15 0,1 C 6,3 C -0,3 C 0,1 C 0,0 C 0,0 C 88 % 93 % 1016,8 hPa 0,0 l/m 0,0 km/h (0 Bft) S-SW 202 0 min -1,6 C 0,0 C 0,0 km/h (0 Bft)
14.12.2020 04:20 0,1 C 6,3 C -0,3 C 0,1 C 0,1 C 0,0 C 88 % 93 % 1016,8 hPa 0,0 l/m 0,0 km/h (0 Bft) S-SW 202 0 min -1,6 C 0,1 C 0,0 km/h (0 Bft)
14.12.2020 04:25 0,0 C 6,3 C -0,1 C 0,1 C 0,1 C 0,1 C 88 % 93 % 1016,8 hPa 0,0 l/m 0,0 km/h (0 Bft) S-SW 202 0 min -1,7 C 0,1 C 0,0 km/h (0 Bft)
14.12.2020 04:30 0,0 C 6,3 C -0,1 C 0,1 C 0,1 C 0,1 C 88 % 93 % 1016,8 hPa 0,0 l/m 0,0 km/h (0 Bft) S-SW 202 0 min -1,7 C 0,1 C 0,0 km/h (0 Bft)
14.12.2020 04:35 -0,1 C 6,3 C -0,1 C -0,1 C -0,1 C 0,0 C 89 % 93 % 1016,8 hPa 0,0 l/m 0,0 km/h (0 Bft) S-SW 202 0 min -1,7 C -0,1 C 0,0 km/h (0 Bft)
14.12.2020 04:40 -0,1 C 6,3 C -0,1 C -0,1 C -0,1 C 0,0 C 89 % 93 % 1016,8 hPa 0,0 l/m 0,0 km/h (0 Bft) S-SW 202 0 min -1,7 C -0,1 C 0,0 km/h (0 Bft)
14.12.2020 04:45 -0,1 C 6,3 C -0,1 C -0,1 C -0,1 C 0,0 C 89 % 93 % 1016,8 hPa 0,0 l/m 0,0 km/h (0 Bft) S-SW 202 0 min -1,7 C -0,1 C 0,0 km/h (0 Bft)
14.12.2020 04:50 -0,1 C 6,3 C -0,1 C -0,1 C -0,1 C 0,0 C 89 % 93 % 1016,4 hPa 0,0 l/m 0,0 km/h (0 Bft) S-SW 202 0 min -1,7 C -0,1 C 0,0 km/h (0 Bft)
14.12.2020 04:55 -0,3 C 6,3 C -0,2 C 0,1 C 0,1 C 0,4 C 89 % 93 % 1016,4 hPa 0,0 l/m 0,0 km/h (0 Bft) S-SW 202 0 min -1,9 C 0,1 C 0,0 km/h (0 Bft)
14.12.2020 05:00 -0,3 C 6,3 C -0,2 C 0,1 C 0,1 C 0,4 C 89 % 93 % 1016,4 hPa 0,0 l/m 0,0 km/h (0 Bft) S-SW 202 0 min -1,9 C 0,1 C 0,0 km/h (0 Bft)
14.12.2020 05:05 -0,3 C 6,3 C -0,1 C 0,2 C 0,2 C 0,5 C 89 % 93 % 1016,4 hPa 0,0 l/m 0,0 km/h (0 Bft) S-SW 202 0 min -1,9 C 0,2 C 0,0 km/h (0 Bft)
14.12.2020 05:10 -0,4 C 6,3 C -0,2 C 0,2 C 0,2 C 0,6 C 89 % 93 % 1016,4 hPa 0,0 l/m 0,2 km/h (0 Bft) S-SW 202 0 min -2,0 C 0,2 C 1,8 km/h (1 Bft)
14.12.2020 05:15 -0,4 C 6,3 C -0,3 C -0,1 C -0,1 C 0,3 C 89 % 93 % 1016,4 hPa 0,0 l/m 0,2 km/h (0 Bft) S-SW 202 0 min -2,0 C -0,1 C 0,0 km/h (0 Bft)
14.12.2020 05:20 -0,4 C 6,3 C -0,3 C -0,3 C -0,3 C 0,1 C 89 % 93 % 1016,4 hPa 0,0 l/m 0,2 km/h (0 Bft) S-SW 202 0 min -2,0 C -0,3 C 0,0 km/h (0 Bft)
14.12.2020 05:25 -0,5 C 6,2 C -0,4 C -0,5 C -0,5 C 0,0 C 88 % 93 % 1016,4 hPa 0,0 l/m 0,0 km/h (0 Bft) S-SW 202 0 min -2,2 C -0,5 C 0,0 km/h (0 Bft)
14.12.2020 05:30 -0,5 C 6,2 C -0,5 C -0,5 C -0,6 C 0,0 C 88 % 93 % 1016,3 hPa 0,0 l/m 0,2 km/h (0 Bft) S-SW 202 0 min -2,2 C -0,6 C 0,0 km/h (0 Bft)
14.12.2020 05:35 -0,5 C 6,2 C -0,6 C -0,5 C -0,6 C 0,0 C 88 % 93 % 1016,3 hPa 0,0 l/m 0,5 km/h (0 Bft) S-SW 202 0 min -2,2 C -0,6 C 2,1 km/h (1 Bft)
14.12.2020 05:40 -0,5 C 6,2 C -0,7 C -0,5 C -0,6 C 0,0 C 88 % 93 % 1016,3 hPa 0,0 l/m 0,3 km/h (0 Bft) S-SW 202 0 min -2,2 C -0,6 C 0,0 km/h (0 Bft)
14.12.2020 05:45 -0,7 C 6,2 C -0,7 C -0,7 C -0,8 C 0,0 C 88 % 93 % 1016,3 hPa 0,0 l/m 0,2 km/h (0 Bft) S-SW 202 0 min -2,4 C -0,8 C 0,0 km/h (0 Bft)
14.12.2020 05:50 -0,7 C 6,2 C -0,8 C -0,7 C -0,8 C 0,0 C 88 % 93 % 1016,2 hPa 0,0 l/m 0,0 km/h (0 Bft) S-SW 202 0 min -2,4 C -0,8 C 0,0 km/h (0 Bft)
14.12.2020 05:55 -0,8 C 6,2 C -0,8 C -0,8 C -0,9 C 0,0 C 88 % 93 % 1016,2 hPa 0,0 l/m 0,0 km/h (0 Bft) S-SW 202 0 min -2,5 C -0,9 C 2,4 km/h (1 Bft)
14.12.2020 06:00 -0,8 C 6,2 C -0,7 C -0,8 C -0,8 C 0,0 C 88 % 93 % 1016,2 hPa 0,0 l/m 0,3 km/h (0 Bft) S 180 0 min -2,5 C -0,8 C 0,0 km/h (0 Bft)
14.12.2020 06:05 -0,9 C 6,2 C -0,6 C -0,6 C -0,6 C 0,3 C 88 % 93 % 1016,2 hPa 0,0 l/m 1,0 km/h (0 Bft) SW 225 0 min -2,6 C -0,6 C 4,8 km/h (1 Bft)
14.12.2020 06:10 -0,9 C 6,2 C -0,5 C -0,6 C -0,6 C 0,3 C 88 % 93 % 1016,6 hPa 0,0 l/m 0,6 km/h (0 Bft) SW 225 0 min -2,6 C -0,6 C 0,0 km/h (0 Bft)
14.12.2020 06:15 -0,9 C 6,2 C -0,4 C -0,6 C -0,6 C 0,3 C 88 % 93 % 1016,6 hPa 0,0 l/m 0,2 km/h (0 Bft) SW 225 0 min -2,6 C -0,6 C 0,0 km/h (0 Bft)
14.12.2020 06:20 -0,9 C 6,2 C -0,5 C -0,5 C -0,5 C 0,4 C 88 % 93 % 1016,6 hPa 0,0 l/m 0,2 km/h (0 Bft) S 180 0 min -2,6 C -0,5 C 0,0 km/h (0 Bft)
14.12.2020 06:25 -0,9 C 6,2 C -0,5 C -0,6 C -0,6 C 0,3 C 88 % 93 % 1016,6 hPa 0,0 l/m 0,0 km/h (0 Bft) S 180 0 min -2,6 C -0,6 C 0,0 km/h (0 Bft)
14.12.2020 06:30 -0,9 C 6,1 C -0,5 C -0,4 C -0,4 C 0,5 C 88 % 93 % 1016,9 hPa 0,0 l/m 0,6 km/h (0 Bft) S 180 0 min -2,6 C -0,4 C 1,6 km/h (1 Bft)
14.12.2020 06:35 -0,9 C 6,1 C -0,4 C -0,1 C -0,1 C 0,8 C 88 % 93 % 1016,9 hPa 0,0 l/m 1,3 km/h (1 Bft) S 180 0 min -2,6 C -0,1 C 0,0 km/h (0 Bft)
14.12.2020 06:40 -0,8 C 6,1 C -0,4 C 0,0 C 0,0 C 0,8 C 88 % 93 % 1016,9 hPa 0,0 l/m 1,0 km/h (0 Bft) S 180 0 min -2,5 C 0,0 C 1,8 km/h (1 Bft)
14.12.2020 06:45 -0,8 C 6,1 C -0,4 C 0,2 C 0,2 C 1,0 C 88 % 93 % 1016,9 hPa 0,0 l/m 1,0 km/h (0 Bft) S 180 0 min -2,5 C 0,2 C 0,0 km/h (0 Bft)
14.12.2020 06:50 -0,8 C 6,1 C -0,5 C 0,1 C 0,1 C 0,9 C 88 % 93 % 1016,9 hPa 0,0 l/m 0,8 km/h (0 Bft) S 180 0 min -2,5 C 0,1 C 0,0 km/h (0 Bft)
14.12.2020 06:55 -0,7 C 6,1 C -0,5 C 0,2 C 0,2 C 0,9 C 88 % 93 % 1016,9 hPa 0,0 l/m 0,0 km/h (0 Bft) S 180 0 min -2,4 C 0,2 C 0,0 km/h (0 Bft)
14.12.2020 07:00 -0,7 C 6,1 C -0,5 C 0,0 C 0,0 C 0,7 C 88 % 93 % 1016,9 hPa 0,0 l/m 0,0 km/h (0 Bft) S 180 0 min -2,4 C 0,0 C 0,0 km/h (0 Bft)
14.12.2020 07:05 -0,8 C 6,1 C -0,6 C -0,3 C -0,3 C 0,5 C 88 % 93 % 1016,9 hPa 0,0 l/m 0,0 km/h (0 Bft) S 180 0 min -2,5 C -0,3 C 0,0 km/h (0 Bft)
14.12.2020 07:10 -0,9 C 6,1 C -0,7 C -0,5 C -0,5 C 0,4 C 88 % 93 % 1016,7 hPa 0,0 l/m 0,0 km/h (0 Bft) S 180 0 min -2,6 C -0,5 C 0,0 km/h (0 Bft)
14.12.2020 07:15 -0,9 C 6,1 C -0,8 C -0,7 C -0,7 C 0,2 C 88 % 93 % 1016,7 hPa 0,0 l/m 0,0 km/h (0 Bft) S 180 0 min -2,6 C -0,7 C 0,0 km/h (0 Bft)
14.12.2020 07:20 -1,0 C 6,1 C -0,8 C -0,8 C -0,8 C 0,2 C 88 % 93 % 1016,7 hPa 0,0 l/m 0,0 km/h (0 Bft) SW 225 0 min -2,7 C -0,8 C 0,0 km/h (0 Bft)
14.12.2020 07:25 -0,9 C 6,1 C -0,8 C -0,9 C -0,9 C 0,0 C 88 % 93 % 1016,7 hPa 0,0 l/m 0,0 km/h (0 Bft) SW 225 0 min -2,6 C -0,9 C 0,0 km/h (0 Bft)
14.12.2020 07:30 -1,1 C 6,1 C -0,8 C -0,9 C -0,9 C 0,2 C 88 % 93 % 1016,8 hPa 0,0 l/m 0,5 km/h (0 Bft) S 180 0 min -2,8 C -0,9 C 1,9 km/h (1 Bft)
14.12.2020 07:35 -1,2 C 6,1 C -0,9 C -0,9 C -0,9 C 0,3 C 88 % 93 % 1016,8 hPa 0,0 l/m 0,6 km/h (0 Bft) W-SW 247 0 min -2,9 C -0,9 C 2,4 km/h (1 Bft)
14.12.2020 07:40 -1,2 C 6,0 C -0,9 C -0,9 C -0,9 C 0,3 C 89 % 93 % 1016,8 hPa 0,0 l/m 0,5 km/h (0 Bft) W-SW 247 0 min -2,8 C -0,9 C 0,0 km/h (0 Bft)
14.12.2020 07:45 -1,3 C 6,0 C -0,8 C -1,0 C -1,0 C 0,3 C 89 % 93 % 1016,8 hPa 0,0 l/m 0,3 km/h (0 Bft) W-SW 247 0 min -2,9 C -1,0 C 0,0 km/h (0 Bft)
14.12.2020 07:50 -1,3 C 6,0 C -0,9 C -1,1 C -1,1 C 0,2 C 88 % 93 % 1016,8 hPa 0,0 l/m 0,0 km/h (0 Bft) W-SW 247 0 min -3,0 C -1,1 C 0,0 km/h (0 Bft)
14.12.2020 07:55 -1,3 C 6,0 C -0,9 C -1,1 C -1,1 C 0,2 C 89 % 93 % 1016,8 hPa 0,0 l/m 0,0 km/h (0 Bft) W-SW 247 0 min -2,9 C -1,1 C 0,0 km/h (0 Bft)
14.12.2020 08:00 -1,4 C 6,0 C -0,9 C -1,2 C -1,2 C 0,2 C 89 % 93 % 1016,8 hPa 0,0 l/m 0,0 km/h (0 Bft) W-SW 247 0 min -3,0 C -1,2 C 0,0 km/h (0 Bft)
14.12.2020 08:05 -1,4 C 6,0 C -0,9 C -1,1 C -1,1 C 0,3 C 89 % 93 % 1016,8 hPa 0,0 l/m 0,0 km/h (0 Bft) W-SW 247 0 min -3,0 C -1,1 C 0,0 km/h (0 Bft)
14.12.2020 08:10 -1,3 C 6,0 C -1,0 C -1,1 C -1,1 C 0,2 C 89 % 93 % 1017,0 hPa 0,0 l/m 0,0 km/h (0 Bft) W-SW 247 0 min -2,9 C -1,1 C 0,0 km/h (0 Bft)
14.12.2020 08:15 -1,3 C 6,0 C -0,9 C -1,1 C -1,1 C 0,2 C 89 % 93 % 1017,0 hPa 0,0 l/m 0,0 km/h (0 Bft) W-SW 247 0 min -2,9 C -1,1 C 0,0 km/h (0 Bft)
14.12.2020 08:20 -1,3 C 6,0 C -0,9 C -1,1 C -1,1 C 0,2 C 89 % 93 % 1017,0 hPa 0,0 l/m 0,0 km/h (0 Bft) W-SW 247 5 min -2,9 C -1,1 C 0,0 km/h (0 Bft)
14.12.2020 08:25 -1,4 C 6,0 C -0,9 C -1,0 C -1,0 C 0,4 C 89 % 93 % 1017,0 hPa 0,0 l/m 0,0 km/h (0 Bft) W-SW 247 5 min -3,0 C -1,0 C 0,0 km/h (0 Bft)
14.12.2020 08:30 -1,3 C 6,0 C -0,9 C -0,9 C -0,9 C 0,4 C 89 % 93 % 1016,2 hPa 0,0 l/m 0,0 km/h (0 Bft) W-SW 247 5 min -2,9 C -0,9 C 0,0 km/h (0 Bft)
14.12.2020 08:35 -1,3 C 6,0 C -0,9 C -0,9 C -0,9 C 0,4 C 89 % 93 % 1016,2 hPa 0,0 l/m 0,0 km/h (0 Bft) W-SW 247 0 min -2,9 C -0,9 C 0,0 km/h (0 Bft)
14.12.2020 08:40 -1,3 C 6,0 C -0,8 C -0,8 C -0,8 C 0,5 C 89 % 93 % 1016,2 hPa 0,0 l/m 0,0 km/h (0 Bft) W-SW 247 0 min -2,9 C -0,8 C 0,0 km/h (0 Bft)
14.12.2020 08:45 -1,3 C 6,0 C -0,8 C -0,6 C -0,6 C 0,7 C 89 % 93 % 1016,2 hPa 0,0 l/m 0,0 km/h (0 Bft) W-SW 247 5 min -2,9 C -0,6 C 0,0 km/h (0 Bft)
14.12.2020 08:50 -1,3 C 6,0 C -0,7 C -0,5 C -0,5 C 0,8 C 89 % 93 % 1016,5 hPa 0,0 l/m 0,0 km/h (0 Bft) W-SW 247 5 min -2,9 C -0,5 C 0,0 km/h (0 Bft)
14.12.2020 08:55 -1,3 C 6,0 C -0,6 C -0,3 C -0,3 C 1,0 C 89 % 93 % 1016,5 hPa 0,0 l/m 0,0 km/h (0 Bft) W-SW 247 5 min -2,9 C -0,3 C 0,0 km/h (0 Bft)
14.12.2020 09:00 -1,3 C 6,0 C -0,5 C -0,2 C -0,2 C 1,1 C 89 % 93 % 1016,5 hPa 0,0 l/m 0,0 km/h (0 Bft) W-SW 247 5 min -2,9 C -0,2 C 0,0 km/h (0 Bft)
14.12.2020 09:05 -1,3 C 6,0 C -0,5 C 0,1 C 0,1 C 1,4 C 89 % 93 % 1016,5 hPa 0,0 l/m 0,0 km/h (0 Bft) W-SW 247 5 min -2,9 C 0,1 C 0,0 km/h (0 Bft)
14.12.2020 09:10 -1,3 C 6,0 C -0,3 C 0,3 C 0,3 C 1,6 C 89 % 93 % 1016,8 hPa 0,0 l/m 0,0 km/h (0 Bft) W-SW 247 5 min -2,9 C 0,3 C 0,0 km/h (0 Bft)
14.12.2020 09:15 -1,1 C 6,0 C -0,1 C 0,6 C 0,6 C 1,7 C 89 % 93 % 1016,8 hPa 0,0 l/m 0,0 km/h (0 Bft) W-SW 247 0 min -2,7 C 0,6 C 0,0 km/h (0 Bft)
14.12.2020 09:20 -0,9 C 6,0 C 0,0 C 0,8 C 0,8 C 1,7 C 89 % 93 % 1016,8 hPa 0,0 l/m 0,0 km/h (0 Bft) SW 225 0 min -2,5 C 0,8 C 0,0 km/h (0 Bft)
14.12.2020 09:25 -0,9 C 6,0 C 0,2 C 0,9 C 0,9 C 1,8 C 89 % 93 % 1016,8 hPa 0,0 l/m 0,0 km/h (0 Bft) SW 225 0 min -2,5 C 0,9 C 0,0 km/h (0 Bft)
14.12.2020 09:30 -0,7 C 6,0 C 0,3 C 1,0 C 1,0 C 1,7 C 89 % 93 % 1016,2 hPa 0,0 l/m 0,0 km/h (0 Bft) W-SW 247 0 min -2,3 C 1,0 C 0,0 km/h (0 Bft)
14.12.2020 09:35 -0,8 C 6,0 C 0,4 C 1,2 C 1,2 C 2,0 C 89 % 93 % 1016,2 hPa 0,0 l/m 0,0 km/h (0 Bft) W-SW 247 0 min -2,4 C 1,2 C 0,0 km/h (0 Bft)
14.12.2020 09:40 -0,7 C 6,0 C 0,6 C 1,3 C 1,3 C 2,0 C 89 % 93 % 1016,2 hPa 0,0 l/m 0,0 km/h (0 Bft) SW 225 0 min -2,3 C 1,3 C 0,0 km/h (0 Bft)
14.12.2020 09:45 -0,5 C 6,0 C 0,7 C 1,3 C 1,3 C 1,8 C 89 % 93 % 1016,2 hPa 0,0 l/m 0,0 km/h (0 Bft) W-SW 247 0 min -2,1 C 1,3 C 0,0 km/h (0 Bft)
14.12.2020 09:50 -0,6 C 6,0 C 0,7 C 1,4 C 1,4 C 2,0 C 89 % 93 % 1017,1 hPa 0,0 l/m 0,0 km/h (0 Bft) W-SW 247 0 min -2,2 C 1,4 C 0,0 km/h (0 Bft)
14.12.2020 09:55 -0,5 C 6,0 C 0,9 C 1,6 C 1,6 C 2,1 C 89 % 93 % 1017,1 hPa 0,0 l/m 0,0 km/h (0 Bft) W-SW 247 0 min -2,1 C 1,6 C 0,0 km/h (0 Bft)
14.12.2020 10:00 -0,4 C 6,0 C 1,1 C 1,8 C 1,8 C 2,2 C 89 % 93 % 1017,1 hPa 0,0 l/m 0,0 km/h (0 Bft) W-SW 247 0 min -2,0 C 1,8 C 0,0 km/h (0 Bft)
14.12.2020 10:05 -0,1 C 6,0 C 1,3 C 2,0 C 2,0 C 2,1 C 89 % 93 % 1017,1 hPa 0,0 l/m 0,0 km/h (0 Bft) W-SW 247 0 min -1,7 C 2,0 C 0,0 km/h (0 Bft)
14.12.2020 10:10 -0,1 C 6,0 C 1,3 C 2,1 C 2,1 C 2,2 C 89 % 93 % 1016,5 hPa 0,0 l/m 0,0 km/h (0 Bft) W-SW 247 0 min -1,7 C 2,1 C 0,0 km/h (0 Bft)
14.12.2020 10:15 0,1 C 6,0 C 1,4 C 2,3 C 2,3 C 2,2 C 89 % 93 % 1016,5 hPa 0,0 l/m 0,0 km/h (0 Bft) W-SW 247 0 min -1,5 C 2,3 C 0,0 km/h (0 Bft)
14.12.2020 10:20 0,0 C 6,0 C 1,4 C 2,3 C 2,3 C 2,3 C 89 % 93 % 1016,5 hPa 0,0 l/m 0,0 km/h (0 Bft) W-SW 247 0 min -1,6 C 2,3 C 0,0 km/h (0 Bft)
14.12.2020 10:25 0,2 C 6,0 C 1,6 C 2,6 C 2,6 C 2,4 C 89 % 93 % 1016,5 hPa 0,0 l/m 0,0 km/h (0 Bft) W-SW 247 0 min -1,4 C 2,6 C 0,0 km/h (0 Bft)
14.12.2020 10:30 0,3 C 6,0 C 1,7 C 2,8 C 2,8 C 2,5 C 89 % 93 % 1016,7 hPa 0,0 l/m 0,0 km/h (0 Bft) W-SW 247 0 min -1,3 C 2,8 C 0,0 km/h (0 Bft)
14.12.2020 10:35 0,4 C 6,0 C 1,9 C 3,0 C 3,0 C 2,6 C 89 % 93 % 1016,7 hPa 0,0 l/m 0,0 km/h (0 Bft) W-SW 247 0 min -1,2 C 3,0 C 0,0 km/h (0 Bft)
14.12.2020 10:40 0,5 C 5,9 C 1,9 C 3,1 C 3,1 C 2,6 C 89 % 93 % 1016,7 hPa 0,0 l/m 0,0 km/h (0 Bft) W-SW 247 0 min -1,1 C 3,1 C 0,0 km/h (0 Bft)
14.12.2020 10:45 0,6 C 5,9 C 2,1 C 3,5 C 3,5 C 2,9 C 89 % 93 % 1016,7 hPa 0,0 l/m 0,0 km/h (0 Bft) W-SW 247 0 min -1,0 C 3,5 C 0,0 km/h (0 Bft)
14.12.2020 10:50 0,8 C 5,9 C 2,2 C 3,6 C 3,6 C 2,8 C 89 % 93 % 1016,5 hPa 0,0 l/m 0,0 km/h (0 Bft) W-SW 247 0 min -0,8 C 3,6 C 0,0 km/h (0 Bft)
14.12.2020 10:55 0,9 C 5,9 C 2,3 C 3,8 C 3,8 C 2,9 C 89 % 93 % 1016,5 hPa 0,0 l/m 0,0 km/h (0 Bft) W-SW 247 0 min -0,7 C 3,8 C 0,0 km/h (0 Bft)
14.12.2020 11:00 1,0 C 5,9 C 2,4 C 3,9 C 3,9 C 2,9 C 89 % 93 % 1016,5 hPa 0,0 l/m 0,0 km/h (0 Bft) SW 225 0 min -0,6 C 3,9 C 0,0 km/h (0 Bft)
14.12.2020 11:05 1,1 C 5,9 C 2,5 C 4,1 C 4,1 C 3,0 C 89 % 93 % 1016,5 hPa 0,0 l/m 0,0 km/h (0 Bft) SW 225 0 min -0,5 C 4,1 C 0,0 km/h (0 Bft)
14.12.2020 11:10 1,3 C 5,9 C 2,7 C 4,5 C 4,5 C 3,2 C 89 % 93 % 1016,9 hPa 0,0 l/m 0,0 km/h (0 Bft) W-SW 247 0 min -0,3 C 4,5 C 0,0 km/h (0 Bft)
14.12.2020 11:15 1,5 C 5,9 C 2,8 C 5,2 C 5,2 C 3,7 C 89 % 93 % 1016,9 hPa 0,0 l/m 0,0 km/h (0 Bft) W-SW 247 5 min -0,1 C 5,2 C 0,0 km/h (0 Bft)
14.12.2020 11:20 1,6 C 5,9 C 2,9 C 6,0 C 6,0 C 4,4 C 89 % 93 % 1016,9 hPa 0,0 l/m 0,0 km/h (0 Bft) SW 225 5 min -0,0 C 6,0 C 0,0 km/h (0 Bft)
14.12.2020 11:25 1,9 C 5,9 C 3,1 C 6,9 C 6,9 C 5,0 C 89 % 93 % 1016,9 hPa 0,0 l/m 0,0 km/h (0 Bft) W-SW 247 5 min 0,3 C 6,9 C 0,0 km/h (0 Bft)
14.12.2020 11:30 1,9 C 5,9 C 3,1 C 7,6 C 7,6 C 5,7 C 89 % 93 % 1016,5 hPa 0,0 l/m 0,0 km/h (0 Bft) W-SW 247 5 min 0,3 C 7,6 C 0,0 km/h (0 Bft)
14.12.2020 11:35 2,0 C 5,9 C 3,2 C 7,6 C 7,6 C 5,6 C 89 % 93 % 1016,5 hPa 0,0 l/m 0,0 km/h (0 Bft) SW 225 5 min 0,4 C 7,6 C 0,0 km/h (0 Bft)
14.12.2020 11:40 2,2 C 5,9 C 3,4 C 7,3 C 7,3 C 5,1 C 89 % 93 % 1016,5 hPa 0,0 l/m 0,0 km/h (0 Bft) W-SW 247 5 min 0,6 C 7,3 C 1,6 km/h (1 Bft)
14.12.2020 11:45 2,5 C 5,9 C 3,5 C 7,9 C 7,9 C 5,4 C 89 % 93 % 1016,5 hPa 0,0 l/m 0,0 km/h (0 Bft) SW 225 5 min 0,9 C 7,9 C 0,0 km/h (0 Bft)
14.12.2020 11:50 2,6 C 5,9 C 3,6 C 7,9 C 7,9 C 5,3 C 89 % 93 % 1016,3 hPa 0,0 l/m 0,0 km/h (0 Bft) SW 225 5 min 1,0 C 7,9 C 0,0 km/h (0 Bft)
14.12.2020 11:55 2,7 C 5,9 C 3,6 C 7,8 C 7,8 C 5,1 C 89 % 93 % 1016,3 hPa 0,0 l/m 0,0 km/h (0 Bft) W-SW 247 5 min 1,1 C 7,8 C 0,0 km/h (0 Bft)
14.12.2020 12:00 2,9 C 5,9 C 3,6 C 7,6 C 7,6 C 4,7 C 89 % 93 % 1016,3 hPa 0,0 l/m 0,0 km/h (0 Bft) W-SW 247 5 min 1,3 C 7,6 C 0,0 km/h (0 Bft)
14.12.2020 12:05 3,1 C 5,9 C 3,8 C 7,5 C 7,5 C 4,4 C 89 % 93 % 1016,3 hPa 0,0 l/m 0,0 km/h (0 Bft) SW 225 5 min 1,5 C 7,5 C 0,0 km/h (0 Bft)
14.12.2020 12:10 3,1 C 5,9 C 3,9 C 7,5 C 7,5 C 4,4 C 89 % 93 % 1016,1 hPa 0,0 l/m 0,0 km/h (0 Bft) SW 225 5 min 1,5 C 7,5 C 0,0 km/h (0 Bft)
14.12.2020 12:15 3,3 C 5,9 C 4,0 C 7,4 C 7,4 C 4,1 C 89 % 93 % 1016,1 hPa 0,0 l/m 0,0 km/h (0 Bft) S 180 5 min 1,7 C 7,4 C 0,0 km/h (0 Bft)
14.12.2020 12:20 3,5 C 5,8 C 4,0 C 7,2 C 7,2 C 3,7 C 89 % 93 % 1016,1 hPa 0,0 l/m 0,2 km/h (0 Bft) S 180 5 min 1,9 C 7,2 C 0,0 km/h (0 Bft)
14.12.2020 12:25 3,6 C 5,7 C 4,1 C 7,2 C 7,2 C 3,6 C 89 % 93 % 1016,1 hPa 0,0 l/m 0,0 km/h (0 Bft) S 180 5 min 2,0 C 7,2 C 0,0 km/h (0 Bft)
14.12.2020 12:30 3,7 C 5,7 C 4,2 C 7,1 C 7,1 C 3,4 C 89 % 93 % 1016,1 hPa 0,0 l/m 0,2 km/h (0 Bft) S 180 5 min 2,1 C 7,1 C 0,0 km/h (0 Bft)
14.12.2020 12:35 3,9 C 5,7 C 4,3 C 7,2 C 7,2 C 3,3 C 89 % 93 % 1016,1 hPa 0,0 l/m 0,2 km/h (0 Bft) S 180 5 min 2,3 C 7,2 C 0,0 km/h (0 Bft)
14.12.2020 12:40 4,0 C 5,7 C 4,3 C 7,3 C 7,3 C 3,3 C 89 % 93 % 1016,1 hPa 0,0 l/m 0,3 km/h (0 Bft) S 180 5 min 2,4 C 7,3 C 1,8 km/h (1 Bft)
14.12.2020 12:45 4,2 C 5,7 C 4,6 C 7,7 C 7,7 C 3,5 C 89 % 93 % 1016,1 hPa 0,0 l/m 0,2 km/h (0 Bft) S-SW 202 5 min 2,6 C 7,7 C 0,0 km/h (0 Bft)
14.12.2020 12:50 4,4 C 5,7 C 4,7 C 7,8 C 7,8 C 3,4 C 89 % 93 % 1016,1 hPa 0,0 l/m 0,6 km/h (0 Bft) W-NW 292 5 min 2,7 C 7,8 C 1,6 km/h (1 Bft)
14.12.2020 12:55 4,7 C 5,7 C 5,0 C 8,6 C 8,6 C 3,9 C 89 % 93 % 1016,1 hPa 0,0 l/m 1,0 km/h (0 Bft) S 180 5 min 3,0 C 8,6 C 0,0 km/h (0 Bft)
14.12.2020 13:00 5,0 C 5,7 C 5,1 C 9,1 C 9,1 C 4,1 C 89 % 93 % 1016,1 hPa 0,0 l/m 1,0 km/h (0 Bft) S 180 5 min 3,3 C 9,1 C 3,5 km/h (1 Bft)
14.12.2020 13:05 5,2 C 5,7 C 5,4 C 9,3 C 9,3 C 4,1 C 89 % 93 % 1016,1 hPa 0,0 l/m 2,3 km/h (1 Bft) SW 225 5 min 3,5 C 9,3 C 3,7 km/h (1 Bft)
14.12.2020 13:10 5,5 C 5,6 C 5,5 C 9,3 C 9,3 C 3,8 C 89 % 93 % 1015,9 hPa 0,0 l/m 2,6 km/h (1 Bft) SO 135 5 min 3,8 C 9,3 C 2,9 km/h (1 Bft)
14.12.2020 13:15 5,7 C 5,6 C 5,7 C 9,3 C 9,3 C 3,6 C 89 % 93 % 1015,9 hPa 0,0 l/m 2,7 km/h (1 Bft) SW 225 5 min 4,0 C 9,3 C 6,9 km/h (2 Bft)
14.12.2020 13:20 5,9 C 5,6 C 5,9 C 9,4 C 9,4 C 3,5 C 89 % 93 % 1015,9 hPa 0,0 l/m 2,4 km/h (1 Bft) W-SW 247 5 min 4,2 C 9,4 C 4,7 km/h (1 Bft)
14.12.2020 13:25 6,1 C 5,6 C 5,9 C 9,4 C 9,4 C 3,3 C 88 % 93 % 1015,9 hPa 0,0 l/m 1,9 km/h (1 Bft) W-SW 247 5 min 4,3 C 9,4 C 1,8 km/h (1 Bft)
14.12.2020 13:30 6,3 C 5,6 C 5,9 C 9,4 C 9,4 C 3,1 C 88 % 93 % 1015,9 hPa 0,0 l/m 1,6 km/h (1 Bft) S 180 0 min 4,5 C 9,4 C 0,0 km/h (0 Bft)
14.12.2020 13:35 6,6 C 5,7 C 6,1 C 9,7 C 9,7 C 3,1 C 88 % 93 % 1015,9 hPa 0,0 l/m 0,6 km/h (0 Bft) O-SO 112 0 min 4,8 C 9,7 C 1,6 km/h (1 Bft)
14.12.2020 13:40 6,9 C 5,7 C 6,3 C 9,9 C 9,9 C 3,0 C 88 % 93 % 1015,9 hPa 0,0 l/m 1,0 km/h (0 Bft) SW 225 0 min 5,1 C 9,9 C 0,0 km/h (0 Bft)
14.12.2020 13:45 7,5 C 5,7 C 6,5 C 10,2 C 10,2 C 2,7 C 88 % 92 % 1015,9 hPa 0,0 l/m 1,6 km/h (1 Bft) O-SO 112 0 min 5,6 C 10,2 C 7,2 km/h (2 Bft)
14.12.2020 13:50 7,9 C 5,7 C 6,5 C 10,1 C 10,1 C 2,2 C 88 % 92 % 1015,7 hPa 0,0 l/m 1,0 km/h (0 Bft) SO 135 0 min 6,0 C 10,1 C 0,0 km/h (0 Bft)
14.12.2020 13:55 8,3 C 5,7 C 6,6 C 9,9 C 9,9 C 1,6 C 87 % 92 % 1015,7 hPa 0,0 l/m 1,1 km/h (1 Bft) S 180 0 min 6,3 C 9,9 C 3,1 km/h (1 Bft)
14.12.2020 14:00 8,4 C 5,7 C 6,7 C 10,0 C 10,0 C 1,6 C 87 % 92 % 1015,7 hPa 0,0 l/m 1,4 km/h (1 Bft) SW 225 0 min 6,4 C 10,0 C 2,7 km/h (1 Bft)
14.12.2020 14:05 8,7 C 5,6 C 6,9 C 10,6 C 10,6 C 1,9 C 86 % 92 % 1015,7 hPa 0,0 l/m 1,6 km/h (1 Bft) S 180 0 min 6,5 C 10,6 C 3,4 km/h (1 Bft)
14.12.2020 14:10 8,9 C 5,6 C 7,1 C 10,9 C 10,9 C 2,0 C 85 % 91 % 1015,6 hPa 0,0 l/m 1,8 km/h (1 Bft) S 180 0 min 6,5 C 10,9 C 3,2 km/h (1 Bft)
14.12.2020 14:15 9,1 C 5,6 C 7,1 C 11,5 C 11,5 C 2,4 C 83 % 90 % 1015,6 hPa 0,0 l/m 2,4 km/h (1 Bft) O-SO 112 0 min 6,4 C 11,5 C 9,2 km/h (2 Bft)
14.12.2020 14:20 9,1 C 5,6 C 7,1 C 11,4 C 11,4 C 2,3 C 82 % 90 % 1015,6 hPa 0,0 l/m 3,1 km/h (1 Bft) S 180 0 min 6,2 C 11,4 C 2,4 km/h (1 Bft)
14.12.2020 14:25 9,2 C 5,6 C 7,2 C 11,3 C 11,3 C 2,1 C 80 % 90 % 1015,6 hPa 0,0 l/m 2,6 km/h (1 Bft) SO 135 0 min 5,9 C 11,3 C 2,1 km/h (1 Bft)
14.12.2020 14:30 9,1 C 5,6 C 7,2 C 11,1 C 11,1 C 2,0 C 80 % 90 % 1015,4 hPa 0,0 l/m 2,3 km/h (1 Bft) SO 135 0 min 5,8 C 11,1 C 2,3 km/h (1 Bft)
14.12.2020 14:35 9,1 C 5,6 C 7,2 C 11,2 C 11,2 C 2,1 C 78 % 89 % 1015,4 hPa 0,0 l/m 2,1 km/h (1 Bft) S-SW 202 0 min 5,5 C 11,2 C 1,8 km/h (1 Bft)
14.12.2020 14:40 9,1 C 5,7 C 7,3 C 11,2 C 11,2 C 2,1 C 78 % 89 % 1015,4 hPa 0,0 l/m 1,6 km/h (1 Bft) S 180 0 min 5,5 C 11,2 C 0,0 km/h (0 Bft)
14.12.2020 14:45 8,9 C 5,7 C 7,1 C 11,3 C 11,3 C 2,4 C 77 % 88 % 1015,4 hPa 0,0 l/m 0,6 km/h (0 Bft) SO 135 0 min 5,1 C 11,3 C 1,8 km/h (1 Bft)
14.12.2020 14:50 8,8 C 5,7 C 7,1 C 11,4 C 11,4 C 2,6 C 77 % 88 % 1015,4 hPa 0,0 l/m 1,1 km/h (1 Bft) S-SW 202 0 min 5,0 C 11,4 C 0,0 km/h (0 Bft)
14.12.2020 14:55 8,8 C 5,7 C 6,9 C 10,7 C 10,7 C 1,9 C 77 % 88 % 1015,4 hPa 0,0 l/m 1,6 km/h (1 Bft) S 180 0 min 5,0 C 10,7 C 0,0 km/h (0 Bft)
14.12.2020 15:00 8,8 C 5,7 C 6,8 C 10,0 C 10,0 C 1,2 C 77 % 88 % 1015,4 hPa 0,0 l/m 1,1 km/h (1 Bft) S 180 0 min 5,0 C 10,0 C 1,9 km/h (1 Bft)
14.12.2020 15:05 8,7 C 5,8 C 6,7 C 9,2 C 9,2 C 0,5 C 77 % 88 % 1015,4 hPa 0,0 l/m 0,8 km/h (0 Bft) NO 45 0 min 4,9 C 9,2 C 0,0 km/h (0 Bft)
14.12.2020 15:10 8,6 C 5,8 C 6,5 C 8,9 C 8,9 C 0,3 C 76 % 88 % 1016,1 hPa 0,0 l/m 0,8 km/h (0 Bft) O-NO 67 0 min 4,6 C 8,9 C 0,0 km/h (0 Bft)
14.12.2020 15:15 8,6 C 5,8 C 6,6 C 8,6 C 8,5 C 0,0 C 76 % 87 % 1016,1 hPa 0,0 l/m 0,6 km/h (0 Bft) SO 135 0 min 4,6 C 8,5 C 2,3 km/h (1 Bft)
14.12.2020 15:20 8,6 C 5,8 C 6,4 C 8,5 C 8,4 C 0,0 C 76 % 87 % 1016,1 hPa 0,0 l/m 1,4 km/h (1 Bft) S 180 0 min 4,6 C 8,4 C 3,7 km/h (1 Bft)
14.12.2020 15:25 8,5 C 5,8 C 6,3 C 8,4 C 8,2 C 0,0 C 76 % 87 % 1016,1 hPa 0,0 l/m 2,4 km/h (1 Bft) S-SO 157 0 min 4,5 C 8,2 C 3,9 km/h (1 Bft)
14.12.2020 15:30 8,5 C 5,8 C 6,3 C 8,3 C 8,0 C 0,0 C 76 % 87 % 1015,5 hPa 0,0 l/m 2,7 km/h (1 Bft) S 180 0 min 4,5 C 8,0 C 4,2 km/h (1 Bft)
14.12.2020 15:35 8,4 C 5,8 C 6,2 C 8,2 C 7,9 C 0,0 C 75 % 87 % 1015,5 hPa 0,0 l/m 2,9 km/h (1 Bft) S-SO 157 0 min 4,2 C 7,9 C 1,8 km/h (1 Bft)
14.12.2020 15:40 8,4 C 5,8 C 6,0 C 8,1 C 7,6 C 0,0 C 75 % 86 % 1015,5 hPa 0,0 l/m 1,9 km/h (1 Bft) SO 135 0 min 4,2 C 7,6 C 2,9 km/h (1 Bft)
14.12.2020 15:45 8,0 C 5,8 C 5,6 C 7,7 C 7,2 C 0,0 C 75 % 86 % 1015,5 hPa 0,0 l/m 0,5 km/h (0 Bft) S 180 0 min 3,8 C 7,2 C 0,0 km/h (0 Bft)
14.12.2020 15:50 7,9 C 5,8 C 5,3 C 7,5 C 6,8 C 0,0 C 75 % 86 % 1015,5 hPa 0,0 l/m 0,3 km/h (0 Bft) S 180 0 min 3,7 C 6,8 C 1,9 km/h (1 Bft)
14.12.2020 15:55 7,5 C 5,8 C 4,9 C 7,1 C 6,4 C 0,0 C 75 % 86 % 1015,5 hPa 0,0 l/m 0,0 km/h (0 Bft) O-NO 67 0 min 3,4 C 6,4 C 0,0 km/h (0 Bft)
14.12.2020 16:00 7,3 C 5,8 C 4,7 C 6,9 C 6,2 C 0,0 C 76 % 86 % 1015,5 hPa 0,0 l/m 0,0 km/h (0 Bft) O-NO 67 0 min 3,4 C 6,2 C 0,0 km/h (0 Bft)
14.12.2020 16:05 7,0 C 5,9 C 4,5 C 6,6 C 5,7 C 0,0 C 76 % 87 % 1015,5 hPa 0,0 l/m 0,0 km/h (0 Bft) W-NW 292 0 min 3,1 C 5,7 C 0,0 km/h (0 Bft)
14.12.2020 16:10 6,8 C 5,9 C 4,3 C 6,4 C 5,5 C 0,0 C 76 % 87 % 1015,8 hPa 0,0 l/m 0,0 km/h (0 Bft) W-NW 292 0 min 2,9 C 5,5 C 0,0 km/h (0 Bft)
14.12.2020 16:15 6,5 C 6,0 C 4,0 C 6,0 C 5,1 C 0,0 C 76 % 88 % 1015,8 hPa 0,0 l/m 0,0 km/h (0 Bft) W-NW 292 0 min 2,6 C 5,1 C 0,0 km/h (0 Bft)
14.12.2020 16:20 6,3 C 6,0 C 3,8 C 5,9 C 5,0 C 0,0 C 76 % 88 % 1015,8 hPa 0,0 l/m 0,0 km/h (0 Bft) W-NW 292 0 min 2,4 C 5,0 C 0,0 km/h (0 Bft)
14.12.2020 16:25 6,0 C 6,0 C 3,5 C 5,6 C 4,7 C 0,0 C 77 % 88 % 1015,8 hPa 0,0 l/m 0,2 km/h (0 Bft) O-NO 67 0 min 2,3 C 4,7 C 1,6 km/h (1 Bft)
14.12.2020 16:30 5,7 C 6,0 C 3,4 C 5,4 C 4,7 C 0,0 C 78 % 88 % 1015,6 hPa 0,0 l/m 0,2 km/h (0 Bft) O-NO 67 0 min 2,2 C 4,7 C 0,0 km/h (0 Bft)
14.12.2020 16:35 5,5 C 6,0 C 3,1 C 5,1 C 4,3 C 0,0 C 78 % 88 % 1015,6 hPa 0,0 l/m 0,0 km/h (0 Bft) O-NO 67 0 min 2,0 C 4,3 C 0,0 km/h (0 Bft)
14.12.2020 16:40 5,2 C 6,1 C 3,0 C 4,8 C 4,1 C 0,0 C 79 % 89 % 1015,6 hPa 0,0 l/m 0,0 km/h (0 Bft) W-SW 247 0 min 1,9 C 4,1 C 0,0 km/h (0 Bft)
14.12.2020 16:45 5,0 C 6,1 C 2,9 C 4,5 C 3,6 C 0,0 C 79 % 89 % 1015,6 hPa 0,0 l/m 0,0 km/h (0 Bft) W-SW 247 0 min 1,7 C 3,6 C 0,0 km/h (0 Bft)
14.12.2020 16:50 4,9 C 6,1 C 2,7 C 4,4 C 3,4 C 0,0 C 79 % 89 % 1015,7 hPa 0,0 l/m 0,0 km/h (0 Bft) NO 45 0 min 1,6 C 3,4 C 0,0 km/h (0 Bft)
14.12.2020 16:55 4,7 C 6,1 C 2,4 C 4,2 C 3,1 C 0,0 C 80 % 89 % 1015,7 hPa 0,0 l/m 0,0 km/h (0 Bft) NO 45 0 min 1,6 C 3,1 C 0,0 km/h (0 Bft)
14.12.2020 17:00 4,5 C 6,1 C 2,3 C 4,0 C 3,0 C 0,0 C 80 % 89 % 1015,7 hPa 0,0 l/m 0,0 km/h (0 Bft) N-NO 22 0 min 1,4 C 3,0 C 0,0 km/h (0 Bft)
14.12.2020 17:05 4,3 C 6,1 C 2,3 C 3,8 C 2,8 C 0,0 C 81 % 90 % 1015,7 hPa 0,0 l/m 0,0 km/h (0 Bft) NO 45 0 min 1,3 C 2,8 C 0,0 km/h (0 Bft)
14.12.2020 17:10 4,1 C 6,1 C 2,3 C 3,7 C 2,8 C 0,0 C 81 % 90 % 1015,9 hPa 0,0 l/m 0,0 km/h (0 Bft) O-NO 67 0 min 1,1 C 2,8 C 0,0 km/h (0 Bft)
14.12.2020 17:15 4,0 C 6,1 C 2,3 C 3,7 C 3,1 C 0,0 C 82 % 90 % 1015,9 hPa 0,0 l/m 0,0 km/h (0 Bft) O-NO 67 0 min 1,2 C 3,1 C 0,0 km/h (0 Bft)
14.12.2020 17:20 4,1 C 6,1 C 2,2 C 3,8 C 3,1 C 0,0 C 82 % 90 % 1015,9 hPa 0,0 l/m 0,0 km/h (0 Bft) O-NO 67 0 min 1,3 C 3,1 C 0,0 km/h (0 Bft)
14.12.2020 17:25 4,0 C 6,2 C 2,1 C 3,6 C 2,9 C 0,0 C 83 % 91 % 1015,9 hPa 0,0 l/m 0,0 km/h (0 Bft) O-NO 67 0 min 1,4 C 2,9 C 0,0 km/h (0 Bft)
14.12.2020 17:30 3,8 C 6,2 C 2,2 C 3,5 C 2,8 C 0,0 C 82 % 91 % 1015,7 hPa 0,0 l/m 0,0 km/h (0 Bft) O-NO 67 0 min 1,0 C 2,8 C 0,0 km/h (0 Bft)
14.12.2020 17:35 3,9 C 6,1 C 2,3 C 3,6 C 3,1 C 0,0 C 83 % 91 % 1015,7 hPa 0,0 l/m 0,0 km/h (0 Bft) O-NO 67 0 min 1,3 C 3,1 C 0,0 km/h (0 Bft)
14.12.2020 17:40 4,1 C 6,1 C 2,3 C 3,8 C 3,1 C 0,0 C 84 % 91 % 1015,7 hPa 0,0 l/m 0,0 km/h (0 Bft) O-NO 67 0 min 1,6 C 3,1 C 0,0 km/h (0 Bft)
14.12.2020 17:45 3,9 C 6,0 C 2,4 C 3,6 C 3,0 C 0,0 C 84 % 91 % 1015,7 hPa 0,0 l/m 0,0 km/h (0 Bft) O-NO 67 0 min 1,4 C 3,0 C 0,0 km/h (0 Bft)
14.12.2020 17:50 3,9 C 6,0 C 2,5 C 3,6 C 3,0 C 0,0 C 84 % 91 % 1015,8 hPa 0,0 l/m 0,3 km/h (0 Bft) S-SW 202 0 min 1,4 C 3,0 C 3,4 km/h (1 Bft)
14.12.2020 17:55 3,7 C 6,1 C 2,3 C 3,4 C 2,8 C 0,0 C 84 % 91 % 1015,8 hPa 0,0 l/m 0,3 km/h (0 Bft) S-SO 157 0 min 1,3 C 2,8 C 0,0 km/h (0 Bft)
14.12.2020 18:00 3,7 C 6,1 C 2,1 C 3,3 C 2,5 C 0,0 C 84 % 91 % 1015,8 hPa 0,0 l/m 0,3 km/h (0 Bft) S-SO 157 0 min 1,3 C 2,5 C 0,0 km/h (0 Bft)
14.12.2020 18:05 3,5 C 6,2 C 2,0 C 3,1 C 2,3 C 0,0 C 84 % 91 % 1015,8 hPa 0,0 l/m 0,0 km/h (0 Bft) S-SO 157 0 min 1,1 C 2,3 C 0,0 km/h (0 Bft)
14.12.2020 18:10 3,5 C 6,2 C 2,0 C 3,1 C 2,3 C 0,0 C 84 % 91 % 1016,1 hPa 0,0 l/m 0,0 km/h (0 Bft) S-SO 157 0 min 1,1 C 2,3 C 0,0 km/h (0 Bft)
14.12.2020 18:15 3,5 C 6,2 C 1,9 C 3,1 C 2,2 C 0,0 C 84 % 91 % 1016,1 hPa 0,0 l/m 0,0 km/h (0 Bft) S-SO 157 0 min 1,1 C 2,2 C 0,0 km/h (0 Bft)
14.12.2020 18:20 3,3 C 6,2 C 1,7 C 2,9 C 2,2 C 0,0 C 84 % 91 % 1016,1 hPa 0,0 l/m 0,0 km/h (0 Bft) S-SO 157 0 min 0,9 C 2,2 C 0,0 km/h (0 Bft)
14.12.2020 18:25 3,2 C 6,2 C 1,6 C 2,9 C 2,3 C 0,0 C 84 % 91 % 1016,1 hPa 0,0 l/m 0,0 km/h (0 Bft) S-SO 157 0 min 0,8 C 2,3 C 0,0 km/h (0 Bft)
14.12.2020 18:30 3,2 C 6,2 C 1,5 C 2,9 C 2,3 C 0,0 C 85 % 91 % 1015,9 hPa 0,0 l/m 0,0 km/h (0 Bft) S-SO 157 0 min 0,9 C 2,3 C 0,0 km/h (0 Bft)
14.12.2020 18:35 3,1 C 6,2 C 1,3 C 2,8 C 2,2 C 0,0 C 85 % 91 % 1015,9 hPa 0,0 l/m 0,0 km/h (0 Bft) S-SO 157 0 min 0,8 C 2,2 C 0,0 km/h (0 Bft)
14.12.2020 18:40 2,9 C 6,2 C 1,3 C 2,7 C 2,2 C 0,0 C 84 % 91 % 1015,9 hPa 0,0 l/m 0,0 km/h (0 Bft) S-SO 157 0 min 0,5 C 2,2 C 0,0 km/h (0 Bft)
14.12.2020 18:45 2,8 C 6,3 C 1,4 C 2,5 C 2,0 C 0,0 C 84 % 91 % 1015,9 hPa 0,0 l/m 0,0 km/h (0 Bft) S-SO 157 0 min 0,4 C 2,0 C 0,0 km/h (0 Bft)
14.12.2020 18:50 2,7 C 6,2 C 1,4 C 2,5 C 2,0 C 0,0 C 85 % 91 % 1015,9 hPa 0,0 l/m 0,0 km/h (0 Bft) S-SO 157 0 min 0,4 C 2,0 C 0,0 km/h (0 Bft)
14.12.2020 18:55 2,6 C 6,2 C 1,3 C 2,3 C 1,8 C 0,0 C 85 % 91 % 1015,9 hPa 0,0 l/m 0,0 km/h (0 Bft) S-SO 157 0 min 0,3 C 1,8 C 0,0 km/h (0 Bft)
14.12.2020 19:00 2,7 C 6,2 C 1,3 C 2,4 C 1,7 C 0,0 C 85 % 92 % 1015,9 hPa 0,0 l/m 0,0 km/h (0 Bft) S-SO 157 0 min 0,4 C 1,7 C 0,0 km/h (0 Bft)
14.12.2020 19:05 2,5 C 6,3 C 1,2 C 2,2 C 1,6 C 0,0 C 85 % 92 % 1015,9 hPa 0,0 l/m 0,0 km/h (0 Bft) S-SO 157 0 min 0,2 C 1,6 C 0,0 km/h (0 Bft)
14.12.2020 19:10 2,4 C 6,2 C 1,1 C 2,1 C 1,4 C 0,0 C 85 % 92 % 1016,0 hPa 0,0 l/m 0,0 km/h (0 Bft) S-SO 157 0 min 0,1 C 1,4 C 0,0 km/h (0 Bft)
14.12.2020 19:15 2,4 C 6,2 C 1,1 C 2,1 C 1,4 C 0,0 C 85 % 92 % 1016,0 hPa 0,0 l/m 0,0 km/h (0 Bft) S-SO 157 0 min 0,1 C 1,4 C 0,0 km/h (0 Bft)
14.12.2020 19:20 2,3 C 6,2 C 1,1 C 2,0 C 1,4 C 0,0 C 86 % 92 % 1016,0 hPa 0,0 l/m 0,0 km/h (0 Bft) S-SO 157 0 min 0,2 C 1,4 C 0,0 km/h (0 Bft)
14.12.2020 19:25 2,2 C 6,2 C 1,1 C 1,9 C 1,4 C 0,0 C 86 % 92 % 1016,0 hPa 0,0 l/m 0,0 km/h (0 Bft) O-NO 67 0 min 0,1 C 1,4 C 1,6 km/h (1 Bft)
14.12.2020 19:30 2,3 C 6,2 C 1,1 C 2,1 C 1,7 C 0,0 C 86 % 92 % 1015,6 hPa 0,0 l/m 0,2 km/h (0 Bft) O 90 0 min 0,2 C 1,7 C 0,0 km/h (0 Bft)
14.12.2020 19:35 2,4 C 6,2 C 1,2 C 2,2 C 1,9 C 0,0 C 86 % 92 % 1015,6 hPa 0,0 l/m 0,2 km/h (0 Bft) S 180 0 min 0,3 C 1,9 C 0,0 km/h (0 Bft)
14.12.2020 19:40 2,4 C 6,2 C 1,3 C 2,3 C 2,0 C 0,0 C 86 % 92 % 1015,6 hPa 0,0 l/m 0,0 km/h (0 Bft) S 180 0 min 0,3 C 2,0 C 0,0 km/h (0 Bft)
14.12.2020 19:45 2,3 C 6,2 C 1,1 C 2,1 C 1,7 C 0,0 C 86 % 92 % 1015,6 hPa 0,0 l/m 0,0 km/h (0 Bft) S 180 0 min 0,2 C 1,7 C 0,0 km/h (0 Bft)
14.12.2020 19:50 2,3 C 6,2 C 1,1 C 2,1 C 1,8 C 0,0 C 86 % 92 % 1016,2 hPa 0,0 l/m 0,0 km/h (0 Bft) W-SW 247 0 min 0,2 C 1,8 C 0,0 km/h (0 Bft)
14.12.2020 19:55 2,3 C 6,0 C 1,4 C 2,2 C 2,1 C 0,0 C 86 % 92 % 1016,2 hPa 0,0 l/m 0,2 km/h (0 Bft) S-SO 157 0 min 0,2 C 2,1 C 3,9 km/h (1 Bft)
14.12.2020 20:00 2,5 C 6,0 C 1,6 C 2,5 C 2,4 C 0,0 C 87 % 92 % 1016,2 hPa 0,0 l/m 0,2 km/h (0 Bft) O-NO 67 0 min 0,6 C 2,4 C 0,0 km/h (0 Bft)
14.12.2020 20:05 2,5 C 6,0 C 1,8 C 2,5 C 2,5 C 0,0 C 87 % 92 % 1016,2 hPa 0,0 l/m 0,2 km/h (0 Bft) O-NO 67 0 min 0,6 C 2,5 C 0,0 km/h (0 Bft)
14.12.2020 20:10 2,7 C 6,0 C 1,9 C 2,7 C 2,6 C 0,0 C 87 % 92 % 1016,3 hPa 0,0 l/m 0,0 km/h (0 Bft) W-SW 247 0 min 0,8 C 2,6 C 0,0 km/h (0 Bft)
14.12.2020 20:15 2,6 C 6,0 C 2,0 C 2,8 C 2,8 C 0,2 C 87 % 92 % 1016,3 hPa 0,0 l/m 0,2 km/h (0 Bft) S 180 0 min 0,7 C 2,8 C 0,0 km/h (0 Bft)
14.12.2020 20:20 2,7 C 6,0 C 1,9 C 2,8 C 2,8 C 0,1 C 87 % 92 % 1016,3 hPa 0,0 l/m 0,5 km/h (0 Bft) S-SO 157 0 min 0,8 C 2,8 C 0,0 km/h (0 Bft)
14.12.2020 20:25 2,8 C 6,0 C 1,9 C 2,8 C 2,7 C 0,0 C 87 % 92 % 1016,3 hPa 0,0 l/m 0,3 km/h (0 Bft) S-SO 157 0 min 0,9 C 2,7 C 0,0 km/h (0 Bft)
14.12.2020 20:30 2,8 C 6,0 C 1,8 C 2,7 C 2,6 C 0,0 C 87 % 92 % 1016,1 hPa 0,0 l/m 0,0 km/h (0 Bft) S-SO 157 0 min 0,9 C 2,6 C 0,0 km/h (0 Bft)
14.12.2020 20:35 2,9 C 6,0 C 1,8 C 2,8 C 2,5 C 0,0 C 87 % 92 % 1016,1 hPa 0,0 l/m 0,0 km/h (0 Bft) S-SO 157 0 min 1,0 C 2,5 C 0,0 km/h (0 Bft)
14.12.2020 20:40 2,8 C 6,0 C 1,7 C 2,7 C 2,5 C 0,0 C 87 % 92 % 1016,1 hPa 0,0 l/m 0,0 km/h (0 Bft) S-SO 157 0 min 0,9 C 2,5 C 0,0 km/h (0 Bft)
14.12.2020 20:45 2,8 C 6,0 C 1,7 C 2,7 C 2,4 C 0,0 C 87 % 92 % 1016,1 hPa 0,0 l/m 0,0 km/h (0 Bft) S-SO 157 0 min 0,9 C 2,4 C 0,0 km/h (0 Bft)
14.12.2020 20:50 2,8 C 6,0 C 1,6 C 2,7 C 2,4 C 0,0 C 87 % 92 % 1016,4 hPa 0,0 l/m 0,0 km/h (0 Bft) S-SO 157 0 min 0,9 C 2,4 C 0,0 km/h (0 Bft)
14.12.2020 20:55 2,8 C 6,0 C 1,6 C 2,6 C 2,3 C 0,0 C 87 % 92 % 1016,4 hPa 0,0 l/m 0,0 km/h (0 Bft) S-SO 157 0 min 0,9 C 2,3 C 0,0 km/h (0 Bft)
14.12.2020 21:00 2,7 C 6,2 C 1,5 C 2,6 C 2,3 C 0,0 C 87 % 92 % 1016,4 hPa 0,0 l/m 0,0 km/h (0 Bft) S-SO 157 0 min 0,8 C 2,3 C 0,0 km/h (0 Bft)
14.12.2020 21:05 2,6 C 6,2 C 1,4 C 2,5 C 2,2 C 0,0 C 87 % 92 % 1016,4 hPa 0,0 l/m 0,0 km/h (0 Bft) S-SO 157 0 min 0,7 C 2,2 C 0,0 km/h (0 Bft)
14.12.2020 21:10 2,6 C 6,2 C 1,3 C 2,4 C 2,0 C 0,0 C 87 % 92 % 1015,9 hPa 0,0 l/m 0,0 km/h (0 Bft) S-SO 157 0 min 0,7 C 2,0 C 0,0 km/h (0 Bft)
14.12.2020 21:15 2,4 C 6,2 C 1,3 C 2,3 C 2,0 C 0,0 C 86 % 92 % 1015,9 hPa 0,0 l/m 0,0 km/h (0 Bft) S-SO 157 0 min 0,3 C 2,0 C 0,0 km/h (0 Bft)
14.12.2020 21:20 2,5 C 6,2 C 1,2 C 2,3 C 1,9 C 0,0 C 87 % 92 % 1015,9 hPa 0,0 l/m 0,0 km/h (0 Bft) S-SO 157 0 min 0,6 C 1,9 C 0,0 km/h (0 Bft)
14.12.2020 21:25 2,3 C 6,2 C 1,1 C 2,1 C 1,8 C 0,0 C 86 % 92 % 1015,9 hPa 0,0 l/m 0,0 km/h (0 Bft) S-SO 157 0 min 0,2 C 1,8 C 0,0 km/h (0 Bft)
14.12.2020 21:30 2,3 C 6,2 C 1,1 C 2,1 C 1,7 C 0,0 C 86 % 92 % 1016,0 hPa 0,0 l/m 0,0 km/h (0 Bft) S-SO 157 0 min 0,2 C 1,7 C 0,0 km/h (0 Bft)
14.12.2020 21:35 2,3 C 6,2 C 0,9 C 2,0 C 1,5 C 0,0 C 86 % 92 % 1016,0 hPa 0,0 l/m 0,0 km/h (0 Bft) S-SO 157 0 min 0,2 C 1,5 C 0,0 km/h (0 Bft)
14.12.2020 21:40 2,1 C 6,2 C 1,0 C 1,9 C 1,5 C 0,0 C 86 % 92 % 1016,0 hPa 0,0 l/m 0,0 km/h (0 Bft) S-SO 157 0 min 0,0 C 1,5 C 0,0 km/h (0 Bft)
14.12.2020 21:45 2,0 C 6,2 C 0,8 C 1,8 C 1,4 C 0,0 C 87 % 92 % 1016,0 hPa 0,0 l/m 0,0 km/h (0 Bft) S-SO 157 0 min 0,1 C 1,4 C 0,0 km/h (0 Bft)
14.12.2020 21:50 2,0 C 6,2 C 0,8 C 1,7 C 1,2 C 0,0 C 87 % 92 % 1016,0 hPa 0,0 l/m 0,0 km/h (0 Bft) S-SO 157 0 min 0,1 C 1,2 C 0,0 km/h (0 Bft)
14.12.2020 21:55 1,9 C 6,2 C 0,7 C 1,6 C 1,0 C 0,0 C 87 % 92 % 1016,0 hPa 0,0 l/m 0,0 km/h (0 Bft) S-SO 157 0 min -0,0 C 1,0 C 0,0 km/h (0 Bft)
14.12.2020 22:00 1,9 C 6,2 C 0,7 C 1,6 C 0,9 C 0,0 C 87 % 92 % 1016,0 hPa 0,0 l/m 0,0 km/h (0 Bft) S-SO 157 0 min -0,0 C 0,9 C 0,0 km/h (0 Bft)
14.12.2020 22:05 1,7 C 6,2 C 0,7 C 1,4 C 0,9 C 0,0 C 87 % 92 % 1016,0 hPa 0,0 l/m 0,0 km/h (0 Bft) S-SO 157 0 min -0,2 C 0,9 C 0,0 km/h (0 Bft)
14.12.2020 22:10 1,7 C 6,2 C 0,7 C 1,4 C 0,9 C 0,0 C 87 % 92 % 1016,2 hPa 0,0 l/m 0,0 km/h (0 Bft) S-SO 157 0 min -0,2 C 0,9 C 0,0 km/h (0 Bft)
14.12.2020 22:15 1,7 C 6,2 C 0,7 C 1,4 C 0,8 C 0,0 C 87 % 92 % 1016,2 hPa 0,0 l/m 0,0 km/h (0 Bft) S-SO 157 0 min -0,2 C 0,8 C 0,0 km/h (0 Bft)
14.12.2020 22:20 1,6 C 6,2 C 0,7 C 1,4 C 0,9 C 0,0 C 87 % 92 % 1016,2 hPa 0,0 l/m 0,0 km/h (0 Bft) S-SO 157 0 min -0,3 C 0,9 C 0,0 km/h (0 Bft)
14.12.2020 22:25 1,6 C 6,2 C 0,7 C 1,4 C 0,9 C 0,0 C 87 % 92 % 1016,2 hPa 0,0 l/m 0,0 km/h (0 Bft) S-SO 157 0 min -0,3 C 0,9 C 0,0 km/h (0 Bft)
14.12.2020 22:30 1,5 C 6,1 C 0,7 C 1,3 C 0,9 C 0,0 C 87 % 92 % 1016,4 hPa 0,0 l/m 0,0 km/h (0 Bft) S-SO 157 0 min -0,4 C 0,9 C 0,0 km/h (0 Bft)
14.12.2020 22:35 1,5 C 6,1 C 0,8 C 1,3 C 0,9 C 0,0 C 87 % 92 % 1016,4 hPa 0,0 l/m 0,0 km/h (0 Bft) S-SO 157 0 min -0,4 C 0,9 C 0,0 km/h (0 Bft)
14.12.2020 22:40 1,5 C 6,1 C 0,8 C 1,3 C 1,0 C 0,0 C 87 % 92 % 1016,4 hPa 0,0 l/m 0,0 km/h (0 Bft) S-SO 157 0 min -0,4 C 1,0 C 0,0 km/h (0 Bft)
14.12.2020 22:45 1,4 C 6,1 C 0,7 C 1,3 C 1,0 C 0,0 C 87 % 92 % 1016,4 hPa 0,0 l/m 0,0 km/h (0 Bft) S-SO 157 0 min -0,5 C 1,0 C 0,0 km/h (0 Bft)
14.12.2020 22:50 1,5 C 6,1 C 0,7 C 1,3 C 1,0 C 0,0 C 87 % 92 % 1016,2 hPa 0,0 l/m 0,0 km/h (0 Bft) S-SO 157 0 min -0,4 C 1,0 C 0,0 km/h (0 Bft)
14.12.2020 22:55 1,3 C 6,1 C 0,7 C 1,2 C 1,0 C 0,0 C 87 % 92 % 1016,2 hPa 0,0 l/m 0,0 km/h (0 Bft) S-SO 157 0 min -0,6 C 1,0 C 0,0 km/h (0 Bft)
14.12.2020 23:00 1,3 C 6,1 C 0,7 C 1,2 C 1,1 C 0,0 C 87 % 92 % 1016,2 hPa 0,0 l/m 0,0 km/h (0 Bft) S-SO 157 0 min -0,6 C 1,1 C 0,0 km/h (0 Bft)
14.12.2020 23:05 1,3 C 6,1 C 0,7 C 1,2 C 1,1 C 0,0 C 87 % 93 % 1016,2 hPa 0,0 l/m 0,0 km/h (0 Bft) S-SO 157 0 min -0,6 C 1,1 C 0,0 km/h (0 Bft)
14.12.2020 23:10 1,2 C 6,1 C 0,7 C 1,1 C 1,0 C 0,0 C 87 % 92 % 1016,4 hPa 0,0 l/m 0,0 km/h (0 Bft) S-SO 157 0 min -0,7 C 1,0 C 0,0 km/h (0 Bft)
14.12.2020 23:15 1,2 C 6,1 C 0,6 C 1,1 C 0,9 C 0,0 C 88 % 92 % 1016,4 hPa 0,0 l/m 0,0 km/h (0 Bft) S-SO 157 0 min -0,6 C 0,9 C 0,0 km/h (0 Bft)
14.12.2020 23:20 1,2 C 6,1 C 0,6 C 1,1 C 0,9 C 0,0 C 88 % 92 % 1016,4 hPa 0,0 l/m 0,0 km/h (0 Bft) S-SO 157 0 min -0,6 C 0,9 C 0,0 km/h (0 Bft)
14.12.2020 23:25 1,1 C 6,1 C 0,5 C 1,0 C 0,7 C 0,0 C 88 % 93 % 1016,4 hPa 0,0 l/m 0,0 km/h (0 Bft) S-SO 157 0 min -0,7 C 0,7 C 0,0 km/h (0 Bft)
14.12.2020 23:30 1,0 C 6,1 C 0,4 C 0,9 C 0,6 C 0,0 C 88 % 93 % 1016,1 hPa 0,0 l/m 0,0 km/h (0 Bft) S-SO 157 0 min -0,8 C 0,6 C 0,0 km/h (0 Bft)
14.12.2020 23:35 1,1 C 6,1 C 0,4 C 0,9 C 0,4 C 0,0 C 88 % 93 % 1016,1 hPa 0,0 l/m 0,0 km/h (0 Bft) S-SO 157 0 min -0,7 C 0,4 C 0,0 km/h (0 Bft)
14.12.2020 23:40 1,0 C 6,1 C 0,3 C 0,8 C 0,3 C 0,0 C 88 % 93 % 1016,1 hPa 0,0 l/m 0,0 km/h (0 Bft) S-SO 157 0 min -0,8 C 0,3 C 0,0 km/h (0 Bft)
14.12.2020 23:45 0,9 C 6,1 C 0,2 C 0,7 C 0,3 C 0,0 C 87 % 93 % 1016,1 hPa 0,0 l/m 0,0 km/h (0 Bft) S-SO 157 0 min -1,0 C 0,3 C 0,0 km/h (0 Bft)
14.12.2020 23:50 0,8 C 6,1 C 0,2 C 0,6 C 0,2 C 0,0 C 87 % 93 % 1016,2 hPa 0,0 l/m 0,0 km/h (0 Bft) S-SO 157 0 min -1,1 C 0,2 C 0,0 km/h (0 Bft)
14.12.2020 23:55 0,8 C 6,1 C 0,2 C 0,6 C 0,3 C 0,0 C 87 % 93 % 1016,2 hPa 0,0 l/m 0,8 km/h (0 Bft) O-SO 112 0 min -1,1 C 0,3 C 1,8 km/h (1 Bft)
_ Min-Zeit 08:00 13:10 08:10 08:00 08:00 00:00 15:35 15:40 14:30 - 00:00 - - - 07:50 08:00 00:00
Minimum _ -1,4 C 5,6 C -1,0 C -1,2 C -1,2 C 0,0 C 75 % 86 % 1015,4 hPa - 0,0 km/h (0 Bft) - - - -3,0 C -1,2 C 0,0 km/h (0 Bft)
_ Max-Zeit 14:25 00:00 14:40 14:15 14:15 11:30 04:35 01:10 02:10 00:00 14:20 - - 08:20 14:10 14:15 14:15
Maximum _ 9,2 C 6,7 C 7,3 C 11,5 C 11,5 C 5,7 C 89 % 93 % 1017,2 hPa 0,0 l/m 3,1 km/h
S (1 Bft)
- - 5 min 6,5 C 11,5 C 9,2 km/h
O-SO (2 Bft)
Durchschnitt _ 2,3 C 6,1 C 1,8 C 3,0 C 2,8 C 0,8 C 86 % 92 % 1016,3 hPa #0,0 l/m 0,3 km/h (0 Bft) S - #3:00 h 0,3 C 2,8 C 0,4 km/h (0 Bft)
2020 www.wetterstation-wechselburg.de